Date String (YYYY-MM-DD hh:mm:ss) UTC,Instrument flags,Ambient pressure (hPa),Sample flow (lpm),Bypass flow (lpm),Sample temperature (°C),Ambient temperature (°C),ASC tube jacket temperature (°C),LED temperature (°C),Box temperature (°C),Sample RH (%),Span deviation,Mass concentration (μg/m³),Mass concentration (μg/m³),Mass concentration (μg/m³)
DateTimeUTC,F1_M11,P_M11,Q1_M11,Q2_M11,T1_M11,T2_M11,T3_M11,T4_M11,T5_M11,U1_M11,ZSPAN_M11,X0_M11,X2_M11,X1_M11
2021-09-25 07:00:00,,0830.7,4.99,0.00,30.3,29.3,00.0,39.5,32.0,15.1,0002.1,0014.94,0006.55,0004.82
2021-09-25 07:01:00,,0830.8,5.01,0.00,30.3,29.2,00.0,39.5,32.0,15.1,0002.6,0014.52,0006.49,0004.82
2021-09-25 07:02:00,,0830.8,5.01,0.00,30.3,29.2,00.0,39.5,32.0,15.0,0002.4,0014.35,0006.46,0004.83
2021-09-25 07:03:00,,0830.8,5.00,0.00,30.3,29.2,00.0,39.5,32.0,15.0,0002.6,0014.56,0006.46,0004.83
2021-09-25 07:04:00,,0830.8,4.99,0.00,30.3,29.3,00.0,39.5,32.0,15.0,0003.4,0014.77,0006.46,0004.84
2021-09-25 07:05:00,,0830.8,5.02,0.00,30.3,29.3,00.0,39.5,32.0,15.1,0003.3,0015.14,0006.39,0004.84
2021-09-25 07:06:00,,0830.8,4.99,0.00,30.3,29.3,00.0,39.5,32.0,15.1,0003.2,0015.21,0006.34,0004.85
2021-09-25 07:07:00,,0830.8,5.01,0.00,30.3,29.3,00.0,39.5,32.0,15.0,0002.8,0014.94,0006.32,0004.85
2021-09-25 07:08:00,,0830.8,4.99,0.00,30.3,29.2,00.0,39.5,32.0,15.1,0002.1,0016.04,0006.32,0004.86
2021-09-25 07:09:00,,0830.8,5.00,0.00,30.3,29.2,00.0,39.5,32.0,15.1,0002.4,0017.43,0006.32,0004.88
2021-09-25 07:10:00,,0830.8,5.01,0.00,30.3,29.3,00.0,39.5,32.0,15.1,0002.2,0018.31,0006.30,0004.89
2021-09-25 07:11:00,,0830.8,4.99,0.00,30.3,29.3,00.0,39.5,32.0,15.1,0001.9,0018.74,0006.33,0004.90
2021-09-25 07:12:00,,0830.7,5.01,0.00,30.3,29.2,00.0,39.5,32.0,15.1,0002.0,0019.49,0006.38,0004.90
2021-09-25 07:13:00,,0830.7,5.01,0.00,30.3,29.2,00.0,39.5,31.9,15.1,0002.3,0019.64,0006.38,0004.91
2021-09-25 07:14:00,,0830.8,4.99,0.00,30.3,29.3,00.0,39.5,32.0,15.1,0002.2,0019.77,0006.38,0004.92
2021-09-25 07:15:00,,0830.8,5.01,0.00,30.3,29.3,00.0,39.5,32.0,15.1,0002.0,0019.60,0006.40,0004.95
2021-09-25 07:16:00,,0830.8,5.00,0.00,30.3,29.3,00.0,39.5,32.0,15.1,0001.5,0019.24,0006.41,0004.98
2021-09-25 07:17:00,,0830.7,5.01,0.00,30.3,29.2,00.0,39.5,32.0,15.1,0001.4,0019.54,0006.42,0004.99
2021-09-25 07:18:00,,0830.7,5.00,0.00,30.3,29.2,00.0,39.5,32.0,15.1,0001.9,0019.94,0006.45,0005.00
2021-09-25 07:19:00,,0830.7,5.00,0.00,30.3,29.3,00.0,39.5,32.0,15.1,0002.5,0018.65,0006.44,0005.00
2021-09-25 07:20:00,,0830.7,4.99,0.00,30.3,29.3,00.0,39.5,32.0,15.1,0001.9,0017.74,0006.43,0004.99
2021-09-25 07:21:00,,0830.7,5.00,0.00,30.3,29.3,00.0,39.5,32.0,15.1,0002.1,0016.93,0006.46,0004.99
2021-09-25 07:22:00,,0830.6,5.00,0.00,30.4,29.2,00.0,39.5,32.0,15.1,0001.9,0016.81,0006.48,0005.01
2021-09-25 07:23:00,,0830.6,4.99,0.00,30.4,29.3,00.0,39.5,32.1,15.1,0000.9,0016.08,0006.47,0005.02
2021-09-25 07:24:00,,0830.6,5.01,0.00,30.4,29.3,00.0,39.5,32.0,15.2,0000.6,0016.37,0006.47,0005.01
2021-09-25 07:25:00,,0830.7,4.99,0.00,30.3,29.3,00.0,39.5,32.0,15.2,0000.8,0016.85,0006.48,0005.02
2021-09-25 07:26:00,,0830.6,5.01,0.00,30.3,29.3,00.0,39.5,32.0,15.2,0000.6,0017.31,0006.51,0005.03
2021-09-25 07:27:00,,0830.6,4.99,0.00,30.3,29.2,00.0,39.5,32.0,15.2,0000.9,0017.74,0006.52,0005.02
2021-09-25 07:28:00,,0830.6,5.02,0.00,30.3,29.2,00.0,39.5,32.0,15.2,0000.9,0017.28,0006.54,0005.02
2021-09-25 07:29:00,,0830.6,5.00,0.00,30.3,29.3,00.0,39.5,32.0,15.2,0000.6,0016.02,0006.51,0005.02
2021-09-25 07:30:00,,0830.6,5.00,0.00,30.3,29.2,00.0,39.5,32.0,15.1,0000.6,0016.11,0006.49,0005.02
2021-09-25 07:31:00,,0830.6,5.00,0.00,30.3,29.2,00.0,39.5,32.0,15.1,0000.9,0016.96,0006.51,0005.03
2021-09-25 07:32:00,,0830.5,5.01,0.00,30.3,29.2,00.0,39.5,32.0,15.1,0001.1,0017.67,0006.55,0005.05
2021-09-25 07:33:00,,0830.5,4.99,0.00,30.3,29.2,00.0,39.5,32.0,15.1,0001.2,0018.01,0006.53,0005.06
2021-09-25 07:34:00,,0830.6,5.00,0.00,30.3,29.2,00.0,39.5,32.0,15.1,0001.4,0018.05,0006.55,0005.08
2021-09-25 07:35:00,,0830.5,5.01,0.00,30.3,29.2,00.0,39.5,32.0,15.1,0001.4,0017.83,0006.57,0005.09
2021-09-25 07:36:00,,0830.5,4.99,0.00,30.3,29.2,00.0,39.5,32.0,15.1,0001.3,0017.70,0006.57,0005.09
2021-09-25 07:37:00,,0830.5,5.01,0.00,30.3,29.2,00.0,39.5,32.0,15.1,0001.5,0017.46,0006.57,0005.10
2021-09-25 07:38:00,,0830.5,5.00,0.00,30.3,29.2,00.0,39.5,32.0,15.1,0001.6,0017.65,0006.58,0005.11
2021-09-25 07:39:00,,0830.5,5.00,0.00,30.3,29.2,00.0,39.5,32.0,15.1,0001.6,0018.29,0006.57,0005.11
2021-09-25 07:40:00,,0830.5,5.01,0.00,30.3,29.2,00.0,39.5,32.0,15.1,0001.8,0018.87,0006.58,0005.12
2021-09-25 07:41:00,,0830.5,4.99,0.00,30.3,29.2,00.0,39.5,32.0,15.1,0001.2,0019.17,0006.59,0005.14
2021-09-25 07:42:00,,0830.5,4.98,0.00,30.3,29.2,00.0,39.5,32.0,15.1,0000.5,0018.82,0006.63,0005.14
2021-09-25 07:43:00,,0830.5,5.01,0.00,30.3,29.2,00.0,39.5,32.0,15.2,0000.4,0017.69,0006.62,0005.14
2021-09-25 07:44:00,,0830.5,5.00,0.00,30.3,29.2,00.0,39.5,32.0,15.2,0000.6,0017.75,0006.67,0005.13
2021-09-25 07:45:00,,0830.5,5.00,0.00,30.3,29.2,00.0,39.5,32.0,15.2,0000.6,0018.24,0006.62,0005.12
2021-09-25 07:46:00,,0830.5,4.99,0.00,30.3,29.3,00.0,39.5,32.0,15.2,0000.7,0017.79,0006.59,0005.13
2021-09-25 07:47:00,,0830.5,5.02,0.00,30.3,29.3,00.0,39.5,32.0,15.2,0000.8,0017.71,0006.60,0005.14
2021-09-25 07:48:00,,0830.5,4.99,0.00,30.3,29.2,00.0,39.5,31.9,15.2,0000.3,0017.99,0006.57,0005.13
2021-09-25 07:49:00,,0830.6,5.00,0.00,30.3,29.2,00.0,39.5,32.0,15.2,0000.7,0017.76,0006.58,0005.12
2021-09-25 07:50:00,,0830.5,5.00,0.00,30.3,29.2,00.0,39.5,32.0,15.2,0001.4,0017.56,0006.59,0005.12
2021-09-25 07:51:00,,0830.6,4.99,0.00,30.3,29.2,00.0,39.5,32.0,15.2,0001.8,0017.19,0006.57,0005.12
2021-09-25 07:52:00,,0830.5,4.99,0.00,30.3,29.2,00.0,39.5,31.9,15.2,0002.1,0018.06,0006.58,0005.12
2021-09-25 07:53:00,,0830.5,5.01,0.00,30.3,29.2,00.0,39.5,32.0,15.2,0002.3,0017.69,0006.52,0005.13
2021-09-25 07:54:00,,0830.5,4.99,0.00,30.3,29.2,00.0,39.5,32.0,15.2,0002.0,0017.71,0006.47,0005.13
2021-09-25 07:55:00,,0830.4,5.00,0.00,30.3,29.2,00.0,39.5,32.0,15.2,0001.7,0017.14,0006.43,0005.13
2021-09-25 07:56:00,,0830.4,5.01,0.00,30.3,29.2,00.0,39.5,32.0,15.1,0002.0,0016.64,0006.46,0005.13
2021-09-25 07:57:00,,0830.4,5.00,0.00,30.3,29.2,00.0,39.5,32.0,15.1,0002.0,0016.65,0006.48,0005.13
2021-09-25 07:58:00,,0830.4,5.00,0.00,30.3,29.2,00.0,39.5,32.0,15.1,0001.7,0015.80,0006.44,0005.12
2021-09-25 07:59:00,,0830.4,5.02,0.00,30.3,29.2,00.0,39.5,32.0,15.1,0002.2,0015.76,0006.48,0005.12
